Weather History for Monticello, AR

Change the Weather History Date:

Tuesday, March 19, 2013

  Actual Average Record
Temperature  
Mean Temperature 52 °F -  
Max Temperature 64 °F 68 °F 85 °F (1982)
Min Temperature 39 °F 43 °F 25 °F (1965)
Degree Days  
Heating Degree Days 14    
Growing Degree Days 2 (Base 50)    
Moisture  
Dew Point 36 °F    
Average Humidity 57    
Maximum Humidity 89    
Minimum Humidity 30    
Precipitation  
Precipitation 0.00 in - - ()
Sea Level Pressure  
Sea Level Pressure 30.11 in    
Wind  
Wind Speed 6 mph (NE)    
Max Wind Speed 12 mph    
Max Gust Speed 21 mph    
Visibility 10 miles    
Events Rain    
Averages and records for this station are not official NWS values.
T = Trace of Precipitation, MM = Missing Value Source: NWS Daily Summary

Daily Weather History Graph

Daily Weather History Graph

Search for Another Location

Airport:

Trip Planner

Search our weather history database for the weather conditions in past years. The results will help you decide how hot, cold, wet, or windy it might be!

Date:

Astronomy

Mar. 19, 2013 Rise Set
Actual Time 7:11 AM CDT 7:18 PM CDT
Civil Twilight 6:46 AM CDT 7:42 PM CDT
Nautical Twilight 6:17 AM CDT 8:11 PM CDT
Astronomical Twilight 5:48 AM CDT 8:41 PM CDT
Moon 12:17 PM CDT (3/19) 1:49 AM CDT (3/19)
Length of Visible Light 12h 56m
Length of Day
12h 06m
Waxing Crescent, 50% of the Moon is Illuminated
Mar 19
Waxing Crescent
Mar 19
First Quarter
Mar 27
Full
Apr 2
Last Quarter
Apr 10
New

Hourly Weather History & Observations

Time (CDT) Temp. Windchill Dew Point Humidity Pressure Visibility Wind Dir Wind Speed Gust Speed Precip Events Conditions
12:53 AM 50.0 °F - 44.1 °F 80% 30.06 in 10.0 mi Variable 3.5 mph - N/A   Clear
1:53 AM 46.9 °F - 43.0 °F 86% 30.07 in 10.0 mi NE 4.6 mph - 0.00 in   Clear
2:53 AM 46.0 °F 44.8 °F 41.0 °F 83% 30.07 in 10.0 mi NE 3.5 mph - N/A   Clear
3:53 AM 42.1 °F 38.4 °F 39.0 °F 89% 30.03 in 10.0 mi ENE 5.8 mph - N/A   Clear
4:53 AM 43.0 °F 41.3 °F 39.9 °F 89% 30.04 in 10.0 mi East 3.5 mph - N/A   Clear
5:53 AM 42.1 °F 38.4 °F 37.9 °F 85% 30.04 in 10.0 mi NE 5.8 mph - N/A   Clear
6:53 AM 39.9 °F 36.7 °F 37.0 °F 89% 30.06 in 10.0 mi ENE 4.6 mph - N/A   Clear
7:53 AM 44.1 °F - 39.0 °F 82% 30.10 in 10.0 mi Calm Calm - N/A   Clear
8:53 AM 48.9 °F - 42.1 °F 77% 30.14 in 10.0 mi East 4.6 mph - N/A   Clear
9:53 AM 52.0 °F - 43.0 °F 71% 30.16 in 10.0 mi ENE 5.8 mph - N/A   Clear
10:53 AM 57.0 °F - 37.9 °F 49% 30.18 in 10.0 mi NE 10.4 mph - N/A   Clear
11:53 AM 59.0 °F - 35.1 °F 41% 30.18 in 10.0 mi NE 10.4 mph 20.7 mph N/A   Clear
12:53 PM 61.0 °F - 35.1 °F 38% 30.16 in 10.0 mi NE 11.5 mph 19.6 mph N/A   Clear
1:53 PM 63.0 °F - 33.1 °F 33% 30.14 in 10.0 mi ENE 10.4 mph 19.6 mph N/A   Clear
2:53 PM 64.0 °F - 32.0 °F 30% 30.10 in 10.0 mi ENE 11.5 mph 19.6 mph N/A   Clear
3:53 PM 64.0 °F - 34.0 °F 33% 30.08 in 10.0 mi ENE 11.5 mph - N/A   Clear
4:53 PM 62.1 °F - 30.9 °F 31% 30.09 in 10.0 mi NE 11.5 mph - N/A   Clear
5:53 PM 60.1 °F - 30.9 °F 33% 30.09 in 10.0 mi NE 10.4 mph - N/A   Clear
6:53 PM 57.9 °F - 32.0 °F 37% 30.10 in 10.0 mi NE 5.8 mph - N/A   Clear
7:53 PM 55.9 °F - 35.1 °F 45% 30.10 in 10.0 mi North 3.5 mph - N/A   Clear
8:53 PM 54.0 °F - 30.0 °F 40% 30.10 in 10.0 mi NE 9.2 mph - N/A   Clear
9:53 PM 53.1 °F - 28.9 °F 40% 30.14 in 10.0 mi NNE 4.6 mph - 0.00 in Rain Light Rain
10:53 PM 52.0 °F - 28.0 °F 40% 30.15 in 10.0 mi NE 8.1 mph - 0.00 in   Clear
11:53 PM 51.1 °F - 28.9 °F 43% 30.17 in 10.0 mi Variable 6.9 mph - N/A   Clear